Retour au catalogue

ARIANE 5 R/B

ActifHEO
NORAD 42952·ROCKET BODY·🇫🇷 France

Lancé Sep 29, 2017 depuis Guiana Space Centre

Loading…

Prochains Passages (prochaines 24 heures)

TLE

FraisSource: Space-Track

Époque: Sep 14, 2026, 09:05 UTC

1 42952U 17059C   26257.37878411  .00002066  00000-0  56093-3 0  9995
2 42952   5.5644 189.9627 7104126  96.5415 341.3813  2.50471038 77288

Suivez ARIANE 5 R/B en temps réel avec AllMySat

Download on the App Store